﻿測定場所 (Monitoring sites),日付 (Measurement date),時間 (Measurement time),線量率 最大値 (max) μGy/h,線量率 最小値 (min) μGy/h,線量率 平均値 (average) μGy/h,
江戸川 (Edogawa),2019-11-24,23:01～24:00,0.0483,0.0416,0.0441,
江戸川 (Edogawa),2019-11-24,22:01～23:00,0.0477,0.0412,0.0438,
江戸川 (Edogawa),2019-11-24,21:01～22:00,0.0466,0.0409,0.0437,
江戸川 (Edogawa),2019-11-24,20:01～21:00,0.0470,0.0408,0.0436,
江戸川 (Edogawa),2019-11-24,19:01～20:00,0.0465,0.0411,0.0436,
江戸川 (Edogawa),2019-11-24,18:01～19:00,0.0474,0.0408,0.0439,
江戸川 (Edogawa),2019-11-24,17:01～18:00,0.0466,0.0395,0.0437,
江戸川 (Edogawa),2019-11-24,16:01～17:00,0.0463,0.0405,0.0435,
江戸川 (Edogawa),2019-11-24,15:01～16:00,0.0477,0.0409,0.0437,
江戸川 (Edogawa),2019-11-24,14:01～15:00,0.0461,0.0406,0.0435,
江戸川 (Edogawa),2019-11-24,13:01～14:00,0.0471,0.0406,0.0436,
江戸川 (Edogawa),2019-11-24,12:01～13:00,0.0463,0.0407,0.0438,
江戸川 (Edogawa),2019-11-24,11:01～12:00,0.0474,0.0400,0.0436,
江戸川 (Edogawa),2019-11-24,10:01～11:00,0.0482,0.0421,0.0451,
江戸川 (Edogawa),2019-11-24,09:01～10:00,0.0496,0.0435,0.0465,
江戸川 (Edogawa),2019-11-24,08:01～09:00,0.0514,0.0441,0.0476,
江戸川 (Edogawa),2019-11-24,07:01～08:00,0.0506,0.0440,0.0477,
江戸川 (Edogawa),2019-11-24,06:01～07:00,0.0522,0.0459,0.0492,
江戸川 (Edogawa),2019-11-24,05:01～06:00,0.0516,0.0438,0.0481,
江戸川 (Edogawa),2019-11-24,04:01～05:00,0.0511,0.0437,0.0476,
江戸川 (Edogawa),2019-11-24,03:01～04:00,0.0508,0.0452,0.0479,
江戸川 (Edogawa),2019-11-24,02:01～03:00,0.0519,0.0464,0.0491,
江戸川 (Edogawa),2019-11-24,01:01～02:00,0.0539,0.0460,0.0503,
江戸川 (Edogawa),2019-11-24,00:01～01:00,0.0532,0.0461,0.0498,
江戸川 (Edogawa),2019-11-23,23:01～24:00,0.0524,0.0458,0.0490,
江戸川 (Edogawa),2019-11-23,22:01～23:00,0.0519,0.0442,0.0476,
江戸川 (Edogawa),2019-11-23,21:01～22:00,0.0480,0.0431,0.0459,
江戸川 (Edogawa),2019-11-23,20:01～21:00,0.0491,0.0430,0.0460,
江戸川 (Edogawa),2019-11-23,19:01～20:00,0.0492,0.0431,0.0460,
江戸川 (Edogawa),2019-11-23,18:01～19:00,0.0481,0.0423,0.0455,
江戸川 (Edogawa),2019-11-23,17:01～18:00,0.0498,0.0426,0.0461,
江戸川 (Edogawa),2019-11-23,16:01～17:00,0.0506,0.0441,0.0468,
江戸川 (Edogawa),2019-11-23,15:01～16:00,0.0502,0.0433,0.0476,
江戸川 (Edogawa),2019-11-23,14:01～15:00,0.0513,0.0448,0.0479,
江戸川 (Edogawa),2019-11-23,13:01～14:00,0.0525,0.0444,0.0481,
江戸川 (Edogawa),2019-11-23,12:01～13:00,0.0530,0.0456,0.0492,
江戸川 (Edogawa),2019-11-23,11:01～12:00,0.0532,0.0472,0.0501,
江戸川 (Edogawa),2019-11-23,10:01～11:00,0.0529,0.0466,0.0500,
江戸川 (Edogawa),2019-11-23,09:01～10:00,0.0559,0.0483,0.0518,
江戸川 (Edogawa),2019-11-23,08:01～09:00,0.0542,0.0471,0.0513,
江戸川 (Edogawa),2019-11-23,07:01～08:00,0.0527,0.0463,0.0499,
江戸川 (Edogawa),2019-11-23,06:01～07:00,0.0516,0.0464,0.0494,
江戸川 (Edogawa),2019-11-23,05:01～06:00,0.0544,0.0477,0.0505,
江戸川 (Edogawa),2019-11-23,04:01～05:00,0.0577,0.0476,0.0527,
江戸川 (Edogawa),2019-11-23,03:01～04:00,0.0601,0.0532,0.0569,
江戸川 (Edogawa),2019-11-23,02:01～03:00,0.0620,0.0546,0.0583,
江戸川 (Edogawa),2019-11-23,01:01～02:00,0.0601,0.0537,0.0563,
江戸川 (Edogawa),2019-11-23,00:01～01:00,0.0607,0.0526,0.0570,
江戸川 (Edogawa),2019-11-22,23:01～24:00,0.0611,0.0529,0.0576,
江戸川 (Edogawa),2019-11-22,22:01～23:00,0.0598,0.0521,0.0565,
江戸川 (Edogawa),2019-11-22,21:01～22:00,0.0606,0.0530,0.0575,
江戸川 (Edogawa),2019-11-22,20:01～21:00,0.0644,0.0549,0.0597,
江戸川 (Edogawa),2019-11-22,19:01～20:00,0.0670,0.0583,0.0622,
江戸川 (Edogawa),2019-11-22,18:01～19:00,0.0656,0.0539,0.0597,
江戸川 (Edogawa),2019-11-22,17:01～18:00,0.0639,0.0561,0.0595,
江戸川 (Edogawa),2019-11-22,16:01～17:00,0.0635,0.0567,0.0602,
江戸川 (Edogawa),2019-11-22,15:01～16:00,0.0655,0.0574,0.0608,
江戸川 (Edogawa),2019-11-22,14:01～15:00,0.0659,0.0586,0.0612,
江戸川 (Edogawa),2019-11-22,13:01～14:00,0.0656,0.0565,0.0606,
江戸川 (Edogawa),2019-11-22,12:01～13:00,0.0629,0.0524,0.0579,
江戸川 (Edogawa),2019-11-22,11:01～12:00,0.0622,0.0534,0.0573,
江戸川 (Edogawa),2019-11-22,10:01～11:00,0.0629,0.0544,0.0581,
江戸川 (Edogawa),2019-11-22,09:01～10:00,0.0622,0.0525,0.0574,
江戸川 (Edogawa),2019-11-22,08:01～09:00,0.0536,0.0470,0.0504,
江戸川 (Edogawa),2019-11-22,07:01～08:00,0.0531,0.0458,0.0499,
江戸川 (Edogawa),2019-11-22,06:01～07:00,0.0495,0.0427,0.0465,
江戸川 (Edogawa),2019-11-22,05:01～06:00,0.0496,0.0433,0.0463,
江戸川 (Edogawa),2019-11-22,04:01～05:00,0.0489,0.0427,0.0458,
江戸川 (Edogawa),2019-11-22,03:01～04:00,0.0489,0.0426,0.0462,
江戸川 (Edogawa),2019-11-22,02:01～03:00,0.0485,0.0427,0.0456,
江戸川 (Edogawa),2019-11-22,01:01～02:00,0.0489,0.0424,0.0456,
江戸川 (Edogawa),2019-11-22,00:01～01:00,0.0489,0.0421,0.0454,
江戸川 (Edogawa),2019-11-21,23:01～24:00,0.0487,0.0417,0.0453,
江戸川 (Edogawa),2019-11-21,22:01～23:00,0.0490,0.0424,0.0456,
江戸川 (Edogawa),2019-11-21,21:01～22:00,0.0487,0.0415,0.0454,
江戸川 (Edogawa),2019-11-21,20:01～21:00,0.0480,0.0423,0.0454,
江戸川 (Edogawa),2019-11-21,19:01～20:00,0.0481,0.0426,0.0454,
江戸川 (Edogawa),2019-11-21,18:01～19:00,0.0487,0.0420,0.0451,
江戸川 (Edogawa),2019-11-21,17:01～18:00,0.0492,0.0422,0.0455,
江戸川 (Edogawa),2019-11-21,16:01～17:00,0.0484,0.0417,0.0457,
江戸川 (Edogawa),2019-11-21,15:01～16:00,0.0493,0.0416,0.0456,
江戸川 (Edogawa),2019-11-21,14:01～15:00,0.0483,0.0427,0.0456,
江戸川 (Edogawa),2019-11-21,13:01～14:00,0.0485,0.0428,0.0458,
江戸川 (Edogawa),2019-11-21,12:01～13:00,0.0495,0.0432,0.0462,
江戸川 (Edogawa),2019-11-21,11:01～12:00,0.0488,0.0428,0.0455,
江戸川 (Edogawa),2019-11-21,10:01～11:00,0.0486,0.0426,0.0456,
江戸川 (Edogawa),2019-11-21,09:01～10:00,0.0483,0.0429,0.0452,
江戸川 (Edogawa),2019-11-21,08:01～09:00,0.0491,0.0427,0.0457,
江戸川 (Edogawa),2019-11-21,07:01～08:00,0.0490,0.0417,0.0449,
江戸川 (Edogawa),2019-11-21,06:01～07:00,0.0488,0.0429,0.0453,
江戸川 (Edogawa),2019-11-21,05:01～06:00,0.0485,0.0419,0.0452,
江戸川 (Edogawa),2019-11-21,04:01～05:00,0.0482,0.0418,0.0450,
江戸川 (Edogawa),2019-11-21,03:01～04:00,0.0486,0.0428,0.0453,
江戸川 (Edogawa),2019-11-21,02:01～03:00,0.0484,0.0423,0.0452,
江戸川 (Edogawa),2019-11-21,01:01～02:00,0.0486,0.0424,0.0455,
江戸川 (Edogawa),2019-11-21,00:01～01:00,0.0484,0.0430,0.0454,
江戸川 (Edogawa),2019-11-20,23:01～24:00,0.0477,0.0413,0.0452,
江戸川 (Edogawa),2019-11-20,22:01～23:00,0.0477,0.0419,0.0451,
江戸川 (Edogawa),2019-11-20,21:01～22:00,0.0489,0.0420,0.0453,
江戸川 (Edogawa),2019-11-20,20:01～21:00,0.0477,0.0409,0.0450,
江戸川 (Edogawa),2019-11-20,19:01～20:00,0.0498,0.0419,0.0454,
江戸川 (Edogawa),2019-11-20,18:01～19:00,0.0489,0.0421,0.0454,
江戸川 (Edogawa),2019-11-20,17:01～18:00,0.0485,0.0430,0.0456,
江戸川 (Edogawa),2019-11-20,16:01～17:00,0.0478,0.0427,0.0454,
江戸川 (Edogawa),2019-11-20,15:01～16:00,0.0481,0.0414,0.0455,
江戸川 (Edogawa),2019-11-20,14:01～15:00,0.0487,0.0427,0.0454,
江戸川 (Edogawa),2019-11-20,13:01～14:00,0.0480,0.0429,0.0457,
江戸川 (Edogawa),2019-11-20,12:01～13:00,0.0501,0.0424,0.0455,
江戸川 (Edogawa),2019-11-20,11:01～12:00,0.0497,0.0432,0.0456,
江戸川 (Edogawa),2019-11-20,10:01～11:00,0.0486,0.0424,0.0456,
江戸川 (Edogawa),2019-11-20,09:01～10:00,0.0479,0.0428,0.0454,
江戸川 (Edogawa),2019-11-20,08:01～09:00,0.0480,0.0411,0.0449,
江戸川 (Edogawa),2019-11-20,07:01～08:00,0.0478,0.0416,0.0449,
江戸川 (Edogawa),2019-11-20,06:01～07:00,0.0475,0.0420,0.0448,
江戸川 (Edogawa),2019-11-20,05:01～06:00,0.0493,0.0410,0.0450,
江戸川 (Edogawa),2019-11-20,04:01～05:00,0.0486,0.0418,0.0450,
江戸川 (Edogawa),2019-11-20,03:01～04:00,0.0501,0.0406,0.0449,
江戸川 (Edogawa),2019-11-20,02:01～03:00,0.0487,0.0421,0.0453,
江戸川 (Edogawa),2019-11-20,01:01～02:00,0.0488,0.0412,0.0449,
江戸川 (Edogawa),2019-11-20,00:01～01:00,0.0481,0.0414,0.0451,
江戸川 (Edogawa),2019-11-19,23:01～24:00,0.0478,0.0417,0.0448,
江戸川 (Edogawa),2019-11-19,22:01～23:00,0.0477,0.0430,0.0449,
江戸川 (Edogawa),2019-11-19,21:01～22:00,0.0473,0.0423,0.0456,
江戸川 (Edogawa),2019-11-19,20:01～21:00,0.0489,0.0424,0.0454,
江戸川 (Edogawa),2019-11-19,19:01～20:00,0.0482,0.0405,0.0453,
江戸川 (Edogawa),2019-11-19,18:01～19:00,0.0501,0.0427,0.0457,
江戸川 (Edogawa),2019-11-19,17:01～18:00,0.0478,0.0426,0.0452,
江戸川 (Edogawa),2019-11-19,16:01～17:00,0.0480,0.0424,0.0452,
江戸川 (Edogawa),2019-11-19,15:01～16:00,0.0483,0.0425,0.0456,
江戸川 (Edogawa),2019-11-19,14:01～15:00,0.0491,0.0426,0.0454,
江戸川 (Edogawa),2019-11-19,13:01～14:00,0.0492,0.0424,0.0458,
江戸川 (Edogawa),2019-11-19,12:01～13:00,0.0476,0.0416,0.0450,
江戸川 (Edogawa),2019-11-19,11:01～12:00,0.0488,0.0412,0.0455,
江戸川 (Edogawa),2019-11-19,10:01～11:00,0.0483,0.0415,0.0450,
江戸川 (Edogawa),2019-11-19,09:01～10:00,0.0474,0.0422,0.0450,
江戸川 (Edogawa),2019-11-19,08:01～09:00,0.0490,0.0421,0.0449,
江戸川 (Edogawa),2019-11-19,07:01～08:00,0.0477,0.0424,0.0453,
江戸川 (Edogawa),2019-11-19,06:01～07:00,0.0485,0.0418,0.0452,
江戸川 (Edogawa),2019-11-19,05:01～06:00,0.0532,0.0425,0.0477,
江戸川 (Edogawa),2019-11-19,04:01～05:00,0.0563,0.0483,0.0529,
江戸川 (Edogawa),2019-11-19,03:01～04:00,0.0575,0.0491,0.0523,
江戸川 (Edogawa),2019-11-19,02:01～03:00,0.0562,0.0479,0.0517,
江戸川 (Edogawa),2019-11-19,01:01～02:00,0.0581,0.0499,0.0543,
江戸川 (Edogawa),2019-11-19,00:01～01:00,0.0561,0.0446,0.0497,
江戸川 (Edogawa),2019-11-18,23:01～24:00,0.0514,0.0453,0.0477,
江戸川 (Edogawa),2019-11-18,22:01～23:00,0.0520,0.0451,0.0491,
江戸川 (Edogawa),2019-11-18,21:01～22:00,0.0518,0.0447,0.0479,
江戸川 (Edogawa),2019-11-18,20:01～21:00,0.0493,0.0422,0.0455,
江戸川 (Edogawa),2019-11-18,19:01～20:00,0.0483,0.0423,0.0453,
江戸川 (Edogawa),2019-11-18,18:01～19:00,0.0486,0.0418,0.0458,
江戸川 (Edogawa),2019-11-18,17:01～18:00,0.0492,0.0426,0.0458,
江戸川 (Edogawa),2019-11-18,16:01～17:00,0.0487,0.0436,0.0458,
江戸川 (Edogawa),2019-11-18,15:01～16:00,0.0485,0.0426,0.0457,
江戸川 (Edogawa),2019-11-18,14:01～15:00,0.0496,0.0424,0.0458,
江戸川 (Edogawa),2019-11-18,13:01～14:00,0.0488,0.0427,0.0458,
江戸川 (Edogawa),2019-11-18,12:01～13:00,0.0497,0.0425,0.0462,
江戸川 (Edogawa),2019-11-18,11:01～12:00,0.0495,0.0424,0.0462,
江戸川 (Edogawa),2019-11-18,10:01～11:00,0.0505,0.0439,0.0467,
江戸川 (Edogawa),2019-11-18,09:01～10:00,0.0525,0.0464,0.0495,
江戸川 (Edogawa),2019-11-18,08:01～09:00,0.0548,0.0477,0.0514,
江戸川 (Edogawa),2019-11-18,07:01～08:00,0.0497,0.0434,0.0464,
江戸川 (Edogawa),2019-11-18,06:01～07:00,0.0499,0.0428,0.0458,
江戸川 (Edogawa),2019-11-18,05:01～06:00,0.0489,0.0426,0.0462,
江戸川 (Edogawa),2019-11-18,04:01～05:00,0.0489,0.0434,0.0458,
江戸川 (Edogawa),2019-11-18,03:01～04:00,0.0486,0.0428,0.0456,
江戸川 (Edogawa),2019-11-18,02:01～03:00,0.0503,0.0428,0.0458,
江戸川 (Edogawa),2019-11-18,01:01～02:00,0.0485,0.0436,0.0458,
江戸川 (Edogawa),2019-11-18,00:01～01:00,0.0482,0.0420,0.0456,
